Location: Newark
(34.9471°N, 136.1778°E)
Time: 14:39:24
(UTC+00:00)

METEOR M2 - Pass Details

Date: 21 February 2020
Orbit: 818 x 828 km, 98.5° (Epoch: 31 March)

Event Time Altitude Azimuth Distance (km) Brightness Sun altitude
Exits shadow 10:11:53 25° 130° (SE) 1,621 ? -18.9°
Maximum altitude 10:14:41 46° 72° (ENE) 1,106 ? -19.5°
Drops below altitude 10° 10:19:48 10° 1° (N) 2,436 ? -20.6°
Sets 10:22:14 0° 355° (N) 3,373 ? -21.1°
